sat.trackr.live / text

‹ back to catalog

TWILIGHT-1 OBJECT AH

NORAD 67394 · 2026-004AH

PAYLOAD ACTIVE UNKNOWN

§ Identity

Operator
Country
TBD
Launch date
2026-01-11
Launch site
AFWTR
Launch vehicle
Mass (kg)
RCS (m²)

External: N2YO · Heavens-Above · Gunter

§ Orbital elements

Epoch: 2026-09-20T13:34:37.401024Z

Period
94.73 min
Inclination
97.4566°
Eccentricity
0.0008881
Mean motion
15.20097493 rev/d
Perigee alt
499.4 km
Apogee alt
511.7 km
Semi-major
6,883.7 km
B*
1.3594e-4
RAAN
261.4742°
Arg perigee
16.0599°
Mean anomaly
344.0916°
Rev number
3,825

§ Raw data

TWILIGHT-1 OBJECT AH1 67394U 26004AH  26263.56571066  .00002869  00000+0  13594-3 0  99952 67394  97.4566 261.4742 0008881  16.0599 344.0916 15.20097493 38254

JSON: /api/v1/satellites/67394 · /tle

For live sub-satellite position, see the globe view (requires WebGL).

§ Visibility from observer

Set your observer location to see the next 7 days of passes ≥ 10°. The values pass through the URL so the page stays shareable.

No JS? Fill the form by hand. The geolocation button needs JavaScript.